Location: Portland
(39.0033°N, 81.7709°W)
Time: 11:03:35
(UTC+00:00)

Hubble Space Telescope - Visible Passes

Search period start: 11 June 2026 00:00
Search period end: 21 June 2026 00:00
Orbit: 472 x 475 km, 28.5° (Epoch: 10 June)

Date Brightness Start Highest point End Pass type
(mag) Time Alt. Az. Time Alt. Az. Time Alt. Az.
11 Jun 2.3 02:16:05 10° SW 02:18:26 16° S 02:18:26 16° S visible
12 Jun 2.3 01:44:19 10° SW 01:46:42 16° S 01:48:28 12° SSE visible
14 Jun 2.7 02:20:39 10° SW 02:22:10 12° SSW 02:22:16 12° S visible
15 Jun 2.7 01:48:49 10° SW 01:50:22 12° SSW 01:51:56 10° SSE visible
